User: anonymous   Login
Location: Wilsall
(45.9940°N, 110.6590°W)
Time: 21:59:49
(UTC-06:00)
Language:

GP-B - Orbit

View from above orbital plane
View from above orbital plane
View from above satellite
View from above satellite

Ground track
Ground track

The orbit data is extracted from the following two-line orbital elements,

1 28230U 04014A   15086.16764522  .00000911  00000-0  12403-3 0  9991
2 28230 089.8771 135.9621 0002669 107.9884 252.1630 14.78043329588982
Epoch (UTC): 27 March 2015 04:01:24
Eccentricity: 0.0002669
inclination: 89.8771°
perigee height: 633 km
apogee height: 637 km
right ascension of ascending node: 135.9621°
argument of perigee: 107.9884°
revolutions per day: 14.78043329
mean anomaly at epoch: 252.1630°
orbit number at epoch: 58898

The dashed part of the orbit path shows where the satellite is in the earth's shadow,  

DLR